West Bend, WI

10:16 PM CST on November 19, 2019 (GMT -0600)
West Bend Municipal

Weather History for KETB - August, 2019

Change the Weather History Date:

Wednesday, August 28, 2019

  Actual Average Record
Temperature  
Mean Temperature 60 °F -  
Max Temperature 69 °F 78 °F 96 °F (1926)
Min Temperature 50 °F 57 °F 37 °F (1965)
Degree Days  
Heating Degree Days 5    
Growing Degree Days 10 (Base 50)    
Moisture  
Dew Point 49 °F    
Average Humidity 68    
Maximum Humidity 100    
Minimum Humidity 40    
Precipitation  
Precipitation 0.00 in - - ()
Sea Level Pressure  
Sea Level Pressure 29.87 in    
Wind  
Wind Speed 10 mph (West)    
Max Wind Speed 23 mph    
Max Gust Speed 34 mph    
Visibility 10 miles    
Events      
Averages and records for this station are not official NWS values.
T = Trace of Precipitation, MM = Missing Value Source: NWS Daily Summary

Daily Weather History Graph

Daily Weather History Graph

Search for Another Location

Airport or City:

Astronomy

Aug. 28, 2019 Rise Set
Actual Time 6:11 AM CDT 7:34 PM CDT
Civil Twilight 5:42 AM CDT 8:04 PM CDT
Nautical Twilight 5:06 AM CDT 8:40 PM CDT
Astronomical Twilight 4:28 AM CDT 9:18 PM CDT
Moon 3:38 AM CDT (8/28) 6:51 PM CDT (8/28)
Length of Visible Light 14h 22m
Length of Day
13h 23m
Waning Crescent, 4% of the Moon is Illuminated
Aug 28
Waning Crescent
Aug 30
New
Sep 5
First Quarter
Sep 13
Full
Sep 21
Last Quarter

Hourly Weather History & Observations

Time (CDT) Temp. Dew Point Humidity Pressure Visibility Wind Dir Wind Speed Gust Speed Precip Events Conditions
12:15 AM 55.4 °F 50.0 °F 82% 29.83 in 10.0 mi SW 4.6 mph - N/A   Clear
12:35 AM 55.4 °F 50.0 °F 82% 29.83 in 10.0 mi SSW 4.6 mph - N/A   Clear
12:55 AM 55.4 °F 50.0 °F 82% 29.83 in 10.0 mi SW 4.6 mph - N/A   Clear
1:15 AM 57.2 °F 50.0 °F 77% 29.82 in 10.0 mi WSW 6.9 mph - N/A   Clear
1:35 AM 59.0 °F 50.0 °F 72% 29.82 in 10.0 mi WSW 8.1 mph - N/A   Clear
1:55 AM 59.0 °F 50.0 °F 72% 29.82 in 10.0 mi WSW 6.9 mph - N/A   Clear
2:15 AM 59.0 °F 50.0 °F 72% 29.82 in 10.0 mi WSW 8.1 mph - N/A   Clear
2:35 AM 59.0 °F 50.0 °F 72% 29.82 in 10.0 mi WSW 8.1 mph - N/A   Clear
2:55 AM 59.0 °F 50.0 °F 72% 29.82 in 10.0 mi WSW 9.2 mph - N/A   Clear
3:15 AM 57.2 °F 50.0 °F 77% 29.82 in 10.0 mi WSW 9.2 mph - N/A   Clear
3:35 AM 57.2 °F 50.0 °F 77% 29.82 in 10.0 mi WSW 10.4 mph - N/A   Clear
3:55 AM 55.4 °F 50.0 °F 82% 29.82 in 10.0 mi WSW 9.2 mph - N/A   Clear
4:15 AM 57.2 °F 50.0 °F 77% 29.83 in 10.0 mi WSW 9.2 mph 16.1 mph N/A   Clear
4:35 AM 57.2 °F 50.0 °F 77% 29.83 in 10.0 mi WSW 9.2 mph - N/A   Clear
4:55 AM 55.4 °F 50.0 °F 82% 29.83 in 10.0 mi WSW 10.4 mph - N/A   Clear
5:15 AM 55.4 °F 50.0 °F 82% 29.82 in 10.0 mi WSW 8.1 mph - N/A   Clear
5:35 AM 55.4 °F 50.0 °F 82% 29.83 in 10.0 mi WSW 10.4 mph - N/A   Clear
5:55 AM 55.4 °F 50.0 °F 82% 29.83 in 10.0 mi WSW 10.4 mph 18.4 mph N/A   Clear
6:15 AM 55.4 °F 50.0 °F 82% 29.83 in 10.0 mi WSW 13.8 mph 19.6 mph N/A   Clear
6:35 AM 55.4 °F 50.0 °F 82% 29.84 in 10.0 mi West 12.7 mph 21.9 mph N/A   Clear
6:55 AM 55.4 °F 51.8 °F 88% 29.85 in 10.0 mi WSW 11.5 mph - N/A   Scattered Clouds
7:15 AM 57.2 °F 51.8 °F 82% 29.85 in 10.0 mi WSW 13.8 mph 18.4 mph N/A   Scattered Clouds
7:35 AM 57.2 °F 51.8 °F 82% 29.85 in 10.0 mi West 10.4 mph 19.6 mph N/A   Clear
7:55 AM 59.0 °F 51.8 °F 77% 29.85 in 10.0 mi WSW 11.5 mph 18.4 mph N/A   Clear
8:15 AM 60.8 °F 50.0 °F 68% 29.84 in 10.0 mi WSW 13.8 mph 20.7 mph N/A   Clear
8:35 AM 60.8 °F 50.0 °F 68% 29.84 in 10.0 mi West 17.3 mph 23.0 mph N/A   Clear
8:55 AM 60.8 °F 50.0 °F 68% 29.84 in 10.0 mi West 18.4 mph 25.3 mph N/A   Clear
9:15 AM 62.6 °F 50.0 °F 63% 29.85 in 10.0 mi West 17.3 mph 27.6 mph N/A   Clear
9:35 AM 62.6 °F 50.0 °F 63% 29.85 in 10.0 mi West 19.6 mph 26.5 mph N/A   Scattered Clouds
9:55 AM 62.6 °F 48.2 °F 59% 29.85 in 10.0 mi West 17.3 mph 28.8 mph N/A   Mostly Cloudy
10:15 AM 62.6 °F 46.4 °F 55% 29.85 in 10.0 mi West 17.3 mph 27.6 mph N/A   Mostly Cloudy
10:35 AM 62.6 °F 44.6 °F 52% 29.85 in 10.0 mi West 23.0 mph 34.5 mph N/A   Mostly Cloudy
10:55 AM 64.4 °F 44.6 °F 49% 29.86 in 10.0 mi West 20.7 mph 29.9 mph N/A   Mostly Cloudy
11:15 AM 64.4 °F 46.4 °F 52% 29.87 in 10.0 mi West 18.4 mph 26.5 mph N/A   Mostly Cloudy
11:35 AM 64.4 °F 46.4 °F 52% 29.87 in 10.0 mi West 18.4 mph 23.0 mph N/A   Overcast
12:15 PM 64.4 °F 44.6 °F 49% 29.87 in 10.0 mi West 18.4 mph 26.5 mph N/A   Overcast
12:35 PM 66.2 °F 46.4 °F 49% 29.87 in 10.0 mi West 18.4 mph 23.0 mph N/A   Overcast
12:55 PM 66.2 °F 46.4 °F 49% 29.87 in 10.0 mi West 17.3 mph 26.5 mph N/A   Overcast
1:15 PM 68.0 °F 46.4 °F 46% 29.87 in 10.0 mi West 17.3 mph 25.3 mph N/A   Overcast
1:55 PM 68.0 °F 46.4 °F 46% 29.87 in 10.0 mi West 17.3 mph 27.6 mph N/A   Mostly Cloudy
2:15 PM 68.0 °F 46.4 °F 46% 29.87 in 10.0 mi West 23.0 mph 29.9 mph N/A   Mostly Cloudy
2:35 PM 68.0 °F 44.6 °F 43% 29.87 in 10.0 mi West 12.7 mph 29.9 mph N/A   Mostly Cloudy
2:55 PM 69.8 °F 46.4 °F 43% 29.87 in 10.0 mi West 16.1 mph 26.5 mph N/A   Scattered Clouds
3:15 PM 69.8 °F 46.4 °F 43% 29.88 in 10.0 mi West 13.8 mph 20.7 mph N/A   Mostly Cloudy
3:35 PM 69.8 °F 46.4 °F 43% 29.88 in 10.0 mi WSW 18.4 mph 21.9 mph N/A   Overcast
3:55 PM 68.0 °F 44.6 °F 43% 29.88 in 10.0 mi WNW 17.3 mph 24.2 mph N/A   Mostly Cloudy
4:15 PM 69.8 °F 44.6 °F 40% 29.88 in 10.0 mi WNW 18.4 mph 24.2 mph N/A   Scattered Clouds
4:35 PM 69.8 °F 46.4 °F 43% 29.88 in 10.0 mi West 15.0 mph 23.0 mph N/A   Mostly Cloudy
4:55 PM 69.8 °F 44.6 °F 40% 29.88 in 10.0 mi West 18.4 mph 26.5 mph N/A   Mostly Cloudy
5:15 PM 69.8 °F 44.6 °F 40% 29.89 in 10.0 mi WNW 11.5 mph 20.7 mph N/A   Mostly Cloudy
5:35 PM 69.8 °F 44.6 °F 40% 29.88 in 10.0 mi West 12.7 mph 24.2 mph N/A   Mostly Cloudy
5:55 PM 69.8 °F 46.4 °F 43% 29.88 in 10.0 mi West 10.4 mph 16.1 mph N/A   Mostly Cloudy
6:15 PM 69.8 °F 46.4 °F 43% 29.89 in 10.0 mi West 8.1 mph - N/A   Mostly Cloudy
6:35 PM 68.0 °F 46.4 °F 46% 29.89 in 10.0 mi West 9.2 mph - N/A   Mostly Cloudy
6:55 PM 68.0 °F 48.2 °F 49% 29.89 in 10.0 mi West 5.8 mph - N/A   Scattered Clouds
7:15 PM 66.2 °F 50.0 °F 56% 29.89 in 10.0 mi Calm Calm - N/A   Clear
7:35 PM 64.4 °F 50.0 °F 59% 29.90 in 10.0 mi WSW 3.5 mph - N/A   Clear
7:55 PM 62.6 °F 51.8 °F 68% 29.91 in 10.0 mi Calm Calm - N/A   Clear
8:15 PM 59.0 °F 53.6 °F 82% 29.91 in 10.0 mi Calm Calm - N/A   Clear
8:35 PM 55.4 °F 53.6 °F 94% 29.92 in 10.0 mi Calm Calm - N/A   Clear
8:55 PM 55.4 °F 53.6 °F 94% 29.93 in 10.0 mi Calm Calm - N/A   Clear
9:15 PM 53.6 °F 53.6 °F 100% 29.94 in 10.0 mi Calm Calm - N/A   Clear
9:35 PM 53.6 °F 51.8 °F 94% 29.94 in 10.0 mi Calm Calm - N/A   Clear
9:55 PM 53.6 °F 51.8 °F 94% 29.94 in 10.0 mi Calm Calm - N/A   Clear
10:15 PM 51.8 °F 51.8 °F 100% 29.94 in 10.0 mi Calm Calm - N/A   Clear
10:35 PM 53.6 °F 51.8 °F 94% 29.95 in 10.0 mi Calm Calm - N/A   Clear
10:55 PM 51.8 °F 51.8 °F 100% 29.94 in 10.0 mi Calm Calm - N/A   Clear
11:15 PM 51.8 °F 51.8 °F 100% 29.95 in 10.0 mi SW 3.5 mph - N/A   Clear
11:35 PM 51.8 °F 51.8 °F 100% 29.95 in 10.0 mi Calm Calm - N/A   Clear
11:55 PM 50.0 °F 50.0 °F 100% 29.95 in 10.0 mi SW 3.5 mph - N/A   Clear